Regional Weather Roundup
Issued by NWS Northern Indiana

Home | Current Version | Previous Version | Graphics & Text | Print | Product List | Glossary On
Versions: 1 2 3 4 5 6 7 8 9 10 11 12 13 14 15 16 17 18 19 20 21 22 23 24 25 26 27 28 29 30 31 32 33 34 35 36 37 38 39 40 41 42 43 44 45 46 47 48 49 50
000
ASUS43 KIWX 160400
RWRIWX

KIWX WEATHER ROUNDUP
NATIONAL WEATHER SERVICE NORTHERN INDIANA
1200 AM EDT WED APR 16 2014

NOTE: "FAIR" INDICATES FEW OR NO CLOUDS BELOW 12,000 FEET WITH NO
SIGNIFICANT WEATHER AND/OR OBSTRUCTIONS TO VISIBILITY.

* THESE STATIONS ARE NOT UNDER NWS QUALITY CONTROL. THEY ALSO MAY NOT
  REPORT WEATHER SUCH AS PRECIPITATION OR FOG.

INZ001>027-160500-
NORTHERN INDIANA

CITY           SKY/WX    TMP DP  RH WIND       PRES   REMARKS
VALPARAISO     CLEAR     25  16  68 SE3       30.22S
SOUTH BEND     CLEAR     29  14  53 E5        30.23S WCI  24
GOSHEN         CLEAR     26  16  65 SE3       30.23S
ANGOLA*        CLEAR     25  16  68 CALM      30.23S
FORT WAYNE     CLEAR     26  14  60 CALM      30.25S
PERU/GRISSOM   CLEAR     29  19  67 SE3       30.23S

$$
INZ028>050-160500-
CENTRAL INDIANA

CITY           SKY/WX    TMP DP  RH WIND       PRES   REMARKS
LAFAYETTE      CLEAR     28  20  71 E3        30.23F
KOKOMO*        CLEAR     28  21  74 SE5       30.24S WCI  23
MUNCIE*        CLEAR     27  19  72 E3        30.24S
INDIANAPOLIS   CLEAR     30  17  58 E5        30.23S WCI  25

$$
MIZ043>046-050>051-056>058-064>065-071>073-077>080-160500-
SOUTHWEST LOWER MICHIGAN

CITY           SKY/WX    TMP DP  RH WIND       PRES   REMARKS
BATTLE CREEK   CLEAR     25  12  58 CALM      30.23R
BENTON HARBOR  CLEAR     25  16  68 CALM      30.23S
COLDWATER*     CLEAR     24  14  64 CALM      30.23S
HILLSDALE*     CLEAR     23  11  60 CALM      30.22R
HOLLAND        CLEAR     26  18  71 CALM      30.24S
GRAND RAPIDS   CLEAR     27  15  61 W6        30.23S WCI  20
KALAMAZOO      CLEAR     26  12  55 CALM      30.23S
STURGIS*       CLEAR     25  12  58 CALM      30.23S
THREE RIVERS*  FAIR      26  12  55 CALM      30.24S

$$
OHZ001>008-015>018-024>025-160500-
NORTHWEST OHIO

CITY           SKY/WX    TMP DP  RH WIND       PRES   REMARKS
DEFIANCE       CLEAR     25  16  68 CALM      30.26R
FINDLAY        CLEAR     27  14  58 NW5       30.24S WCI  22
TOLEDO EXPRESS CLEAR     27  10  49 W3        30.25R
TOLEDO METCALF CLEAR     28  13  53 W7        30.26R WCI  21
LIMA           CLEAR     29  14  53 NW3       30.25R

$$
&&



USA.gov is the U.S. government's official web portal to all federal, state and local government web resources and services.